Weather History for Kars, Turkey

Change the Weather History Date:

Friday, November 15, 2013

  Actual Average Record
Temperature  
Mean Temperature 38 °F -  
Max Temperature 48 °F 36 °F - ()
Min Temperature 28 °F 19 °F - ()
Degree Days  
Heating Degree Days 27    
Moisture  
Dew Point 31 °F    
Average Humidity 85    
Maximum Humidity 100    
Minimum Humidity 42    
Precipitation  
Precipitation 0.00 in 0.03 in - ()
Sea Level Pressure  
Sea Level Pressure 30.10 in    
Wind  
Wind Speed 1 mph ()    
Max Wind Speed 8 mph    
Max Gust Speed -    
Visibility 4.7 miles    
Events Fog    
T = Trace of Precipitation, MM = Missing Value Source: Averaged Metar Reports

Daily Weather History Graph

Daily Weather History Graph

Search for Another Location

Airport:

Trip Planner

Search our weather history database for the weather conditions in past years. The results will help you decide how hot, cold, wet, or windy it might be!

Date:

Astronomy

Nov. 15, 2013 Rise Set
Actual Time 5:53 AM EET 3:50 PM EET
Civil Twilight 5:24 AM EET 4:19 PM EET
Nautical Twilight 4:51 AM EET 4:52 PM EET
Astronomical Twilight 4:19 AM EET 5:24 PM EET
Moon 2:34 PM EET (11/15) 3:27 AM EET (11/15)
Length of Visible Light 10h 54m
Length of Day
9h 56m
Waxing Gibbous, 95% of the Moon is Illuminated
Nov 15
Waxing Gibbous
Nov 17
Full
Nov 25
Last Quarter
Dec 3
New
Dec 9
First Quarter

Hourly Weather History & Observations

Time (EET) Temp. Windchill Dew Point Humidity Pressure Visibility Wind Dir Wind Speed Gust Speed Precip Events Conditions
12:50 AM 33.8 °F 30.8 °F 33.8 °F 100% 30.09 in - SSE 3.5 mph - N/A   Clear
1:50 AM 32.0 °F - 32.0 °F 100% 30.09 in - Calm Calm - N/A   Clear
2:00 AM 33 °F - 31 °F 88%  in 6 mi Calm Calm - -  
2:50 AM 32.0 °F - 30.2 °F 93% 30.09 in - Calm Calm - N/A   Clear
3:50 AM 30.2 °F - 30.2 °F 100% 30.09 in - Calm Calm - N/A   Clear
4:50 AM 30.2 °F - 28.4 °F 93% 30.09 in - Calm Calm - N/A   Clear
5:00 AM 29 °F - 26 °F 82%  in 6 mi Calm Calm - -  
5:50 AM 28.4 °F - 26.6 °F 93% 30.09 in - Calm Calm - N/A   Clear
6:50 AM 28.4 °F - 28.4 °F 100% 30.09 in - Calm Calm - N/A   Clear
7:50 AM 32.0 °F - 30.2 °F 93% 30.12 in - Calm Calm - N/A   Clear
8:00 AM 31 °F - 29 °F 92%  in 6 mi Calm Calm - -  
8:12 AM 32.0 °F - 32.0 °F 100% 30.12 in 2.2 mi Calm Calm - N/A Fog Light Freezing Fog
8:18 AM 32.0 °F - 32.0 °F 100% 30.12 in 0.6 mi Calm Calm - N/A Fog Light Freezing Fog
8:26 AM 32.0 °F - 32.0 °F 100% 30.12 in 0.1 mi Calm Calm - N/A Fog Light Freezing Fog
8:33 AM 32.0 °F - 32.0 °F 100% 30.12 in 0.1 mi Calm Calm - N/A Fog Light Freezing Fog
8:50 AM 33.8 °F - 33.8 °F 100% 30.12 in 0.1 mi Calm Calm - N/A Fog Fog
9:02 AM 33.8 °F - 33.8 °F 100% 30.12 in 0.1 mi Calm Calm - N/A Fog Fog
9:22 AM 35.6 °F - 35.6 °F 100% 30.12 in 0.5 mi Calm Calm - N/A Fog Patches of Fog
9:50 AM 37.4 °F - 37.4 °F 100% 30.09 in 2.8 mi Calm Calm - N/A Fog Patches of Fog
10:02 AM 39.2 °F - 39.2 °F 100% 30.09 in 5.0 mi Calm Calm - N/A   Mostly Cloudy
10:50 AM 42.8 °F - 42.8 °F 100% 30.09 in 6.2 mi Variable 1.2 mph - N/A   Scattered Clouds
11:00 AM 42 °F - 42 °F 100%  in 6 mi South 1.2 mph - -   Partly Cloudy
11:50 AM 48.2 °F - 33.8 °F 58% 30.06 in 6.2 mi Variable 1.2 mph - N/A   Scattered Clouds
12:50 PM 48.2 °F - 32.0 °F 54% 30.06 in 6.2 mi Variable 1.2 mph - N/A   Scattered Clouds
1:50 PM 48.2 °F - 32.0 °F 54% 30.06 in 6.2 mi Calm Calm - N/A   Mostly Cloudy
2:00 PM 47 °F - 31 °F 42%  in 6 mi Calm Calm - -   Partly Cloudy
2:50 PM 46.4 °F 44.3 °F 32.0 °F 57% 30.06 in 6.2 mi ENE 4.6 mph - N/A   Mostly Cloudy
3:50 PM 42.8 °F 39.3 °F 32.0 °F 66% 30.09 in 6.2 mi East 5.8 mph - N/A   Mostly Cloudy
4:50 PM 41.0 °F 38.0 °F 30.2 °F 65% 30.09 in 6.2 mi WNW 4.6 mph - N/A   Scattered Clouds
5:00 PM 41 °F - 31 °F 57%  in 6 mi WNW 4.6 mph - -   Partly Cloudy
5:50 PM 37.4 °F 32.8 °F 32.0 °F 81% 30.09 in 6.2 mi ESE 5.8 mph - N/A   Scattered Clouds
6:50 PM 35.6 °F 29.2 °F 30.2 °F 81% 30.12 in 6.2 mi East 8.1 mph - N/A   Scattered Clouds
7:50 PM 33.8 °F 27.7 °F 28.4 °F 81% 30.12 in 6.2 mi ESE 6.9 mph - N/A   Scattered Clouds
8:00 PM 34 °F - 28 °F 71%  in 6 mi ESE 6.9 mph - -   Partly Cloudy
8:50 PM 35.6 °F 31.7 °F 30.2 °F 81% 30.12 in 6.2 mi ENE 4.6 mph - N/A   Scattered Clouds
9:50 PM 32.0 °F 26.4 °F 26.6 °F 80% 30.12 in 6.2 mi East 5.8 mph - N/A   Partly Cloudy
10:50 PM 28.4 °F 21.2 °F 24.8 °F 86% 30.12 in 6.2 mi East 6.9 mph - N/A   Partly Cloudy
11:00 PM 29 °F - 25 °F 80%  in 6 mi East 6.9 mph - -   Scattered Clouds
11:50 PM 30.2 °F - 26.6 °F 86% 30.12 in - ESE 2.3 mph - N/A   Clear